Showing default

KUIPER-00364, 68867

Orbit data source: Space-Track

KUIPER-00364, 68867 is an American payload satellite in LEO that was launched on Tue, 28 Apr 2026 UTC launched from the Air Force Eastern Test Range (AFETR). Payload-class satellites include a variety of spacecraft equipped with specific instruments for various scientific and technological missions. These include communications satellites like Starlink; space stations such as the ISS; scientific satellites like the Hubble; Earth observation satellites from companies like Planet Labs, Umbra, and HawkEye 360; GPS; miniature CubeSats for education and research; and military/defense satellites.

Loading next visibility...
Identifier
68867, 2026-095D
Orbit
LEO
Country
Flag of USUS
Related business
None
Manufacturer
Unknown
Mission
Operational spacecraft
Bus & Motor
Unknown
Mass
Unknown
Launch date (UTC)
2026-04-28 (4 days ago)
Launch vehicle
Unknown
Launch site
Air Force Eastern Test Range (AFETR)
Object type
Payload
Rocket body
Debris
Shape & HBR
Unknown
Radar Cross Section
RCS unknown

Expand to show TLE details & history
Last TLE update: 7 hours ago

TLE from 7 hours ago
0 KUIPER-00364
1 68867U 26095D   26122.16670139  .00001868  00000-0  60220-4 0  9990
2 68867  51.8796 104.8982 0003987 109.3930  98.9339 15.37645011  1305
Epoch: 2026-05-02T04:00Z
TLE epoch observation values (Epoch: 2026-05-02T04:00:03.000Z)
Latitude
-22.13894°
Longitude
23.30756°
Altitude
459.631 km
Speed
7.637 km/s
True Right ascension
20h 13m 38s
True Declination
-22° 00' 50"
Sunlit
Object was in daylight at epoch
Visualization orbit readout
Latitude
Unknown
Longitude
Unknown
Altitude
Unknown
Speed
Unknown
Apparent Right ascension
Unknown
Apparent Declination
Unknown
Sunlit
N/A
Visualization observer readout
Local Sidereal Time
18:39:45
Azimuth
Unknown
Elevation
Unknown
Doppler factor
Unknown
Orbital elements
Apogee altitude
456.265 km
Perigee altitude
450.818 km
Semi-major axis
6,831.678 km
Eccentricity
0.0004
Inclination
51.8796°
RAAN
104.8982°
Arg. of periapsis
109.393°
True anomaly
98.97903°
Mean anomaly
98.9339°
Eccentric anomaly
98.95647°
Mean motion
3.84372 °/min
Orbital period
93.66 mins
BSTAR
0.00006022
Loading maneuver chart data...
Computing Atmospheric mass density...
Loading historical data...
Loading historical data...
Loading historical data...
Loading historical data...
Loading historical data...
Loading historical data...
Loading historical data...

Documentation

Showing up to 5 results
|